Orbital Elements at Epoch 2459000.5 (2020-May-31.0) TDB
Reference: JPL 24 (heliocentric ecliptic J2000)
Element | Value | Uncertainty (1-sigma) | Units |
e | .08019295437101716 | 3.236e-08 | |
a | 3.067621389756897 | 1.8142e-08 | au |
q | 2.821619767620566 | 1.0532e-07 | au |
i | 9.614768505026845 | 5.6259e-06 | deg |
node | 346.0475852476146 | 2.0345e-05 | deg |
peri | 89.77079517643043 | 3.9707e-05 | deg |
M | 303.4565607907261 | 3.3501e-05 | deg |
tp | 2459308.734170653815 (2021-Apr-04.23417065) | 0.00018242 | TDB |
period | 1962.461127005052 5.37 | 1.7409e-05 4.766e-08 | d yr |
n | .1834431240680943 | 1.6273e-09 | deg/d |
Q | 3.313623011893228 | 1.9596e-08 | au |
|
| | Orbit Determination Parameters
Additional Information
|